Location: Black Swamp Observatory
(41.3920°N, 84.1250°W)
Time: 11:44:49
(UTC-05:00)

ISS - Pass Details

Date: 07 December 2021
Orbit: 413 x 422 km, 51.6° (Epoch: 19 January)

Event Time Altitude Azimuth Distance (km) Brightness Sun altitude
Rises 18:54:14 0° 297° (WNW) 2,379 0.9 -19.5°
Reaches altitude 10° 18:56:32 10° 285° (WNW) 1,508 0.0 -19.9°
Maximum altitude 18:59:27 27° 225° (SW) 834 -1.7 -20.4°
Enters shadow 19:01:57 13° 169° (S) 1,348 -1.2 -20.9°
